M 179.85240418940 +/- 0.00034       (J2000 ecliptic)          Find_Orb
n   1.51394913017 +/- 0.000107      Peri.  185.74433854 +/- 0.0006
a   0.75115320981 +/- 3.54e-5       Node   140.58833230 +/- 0.00025
e   0.3164242200 +/- 6.23e-5        Incl.    1.94552196 +/- 0.00049
P   0.65/237.78d           H 26.2   G  0.15   U  6.6
q 0.51347014127 +/- 7.1e-5    Q 0.98883627836 +/- 2.05e-7
98 of 100 observations 2020 Feb. 11-17; mean residual 0".407

Orbital elements:  Solar Orbiter Centaur (Venus flyby) 
   Perivenus 2020 Dec 27.116301 +/- 0.0201 TT =  2:47:28 (JD 2459210.616301)
Epoch 2020 Dec 27.0 TT = JDT 2459210.5                        Find_Orb
q   0.00669423782 +/- 0.000346
H   26.2  G 0.15                    Peri.   56.93180814 +/- 1.6
                                    Node   262.34934834 +/- 1.6
e 439.6538099407 +/- 24.2           Incl.   13.10815284 +/- 0.56
98 of 100 observations 2020 Feb. 11-17; mean residual 0".407
Residuals in arcseconds: 
200211 C95 .668- .109+    200212 Z84 .549- .331+    200212 G34 .315+ .552-
200211 C95(1.86- .251-)   200212 Z84 .064+ .248+    200212 G34 .282- .078-
200211 C95 .885+ .224+    200212 Z84 1.15+ .517+    200212 G34 .539+ .272-
200211 C95 1.15+ .034+    200212 Z84 .341- .236+    200212 C95 .142+ .452-
200211 C95 .728- .075+    200212 Z84 .855+ .029-    200212 C95 .421+ .399-
200211 C95 1.84- .024+    200212 Z84 .726- .246+    200212 C95 .475+ .527-
200211 C95 .380- .012+    200212 Z84 .349+ .152+    200212 C95 .748+ .836-
200211 C95 .365- .330+    200212 Z84 .031- .178+    200212 204 .132- .224-
200211 C95(2.47- .088+)   200212 Z84 .056+ .240+    200212 204 .090- .191-
200211 C95 .653- .071+    200212 Z84 .393+ .502+    200212 204 .222+ .228-
200211 C95 .019+ .403+    200212 Z84 .236- .345+    200213 J95 .130- .127-
200211 C95 .133- .265-    200212 Z84 .422+ .333+    200213 J95 .276+ .143-
200211 C95 .015+ .582+    200212 Z84 .522- .322+    200213 J95 .263- .224-
200211 C95 .883- .113-    200212 Z84 .252+ .232+    200213 J95 .116+ .243-
200211 C95 .291- .236-    200212 Z84 .125- .552+    200213 J69 .459+ .523-
200211 C95 .110+ .558+    200212 Z84 .108+ .331+    200213 J69 .184+ 6.2m-
200211 C95 .086+ .206+    200212 Z84 .782+ .224+    200213 J69 .167+ .101-
200211 C95 .265+ .230-    200212 Z84 .107- .298+    200213 J69 .254- .143-
200211 C95 .281- .247+    200212 470 .383- .120-    200214 C95 .102- .038-
200211 C95 .389- .098+    200212 470 .304+ .166+    200214 C95 .814+ .133+
200211 C95 .620- .233-    200212 470 .494+ .128-    200214 C95 .227- .640-
200211 C95 .351- .201+    200212 C95 .319+ .684-    200214 C95 .598+ .161-
200211 Z84 .030+ .080-    200212 C95 .086+ .019+    200214 C95 .557+ 1.19+
200211 Z84 .129+ .195-    200212 C95 .457+ .565-    200214 C95 .540+ .409-
200211 Z84 .042+ .182+    200212 C95 .142+ .533-    200214 C95 .641+ 1.15+
200211 Z84 .138- .242+    200212 C95 .174+ 1.03-    200214 C95 .209- .471-
200211 Z84 751µ- .214+    200212 G34 .042- .198-    200214 C95 .118+ .039+
200211 Z84 .069+ 395µ-    200212 G34 .375- .132-    200217 Z84 .093- .157+
200212 Z84 .036- .239+    200212 G34 .335- .745+    200217 Z84 .043- .172+
200212 Z84 .430+ .080+    200212 C95 .159+ .128-    200217 Z84 .244- .345+
200212 Z84 .111- .162+    200212 G34 .199- .052+    200217 Z84 .246- .455+
200212 Z84 .342+ .112+    200212 G34 .246+ .070-    200217 Z84 .153- .365+
200212 Z84 .197- .151+    200212 G34 .086+ .160-
200212 Z84 .082+ .203+    200212 G34 .231- .400+

Ephemerides (geocentric):
Date (UTC) HH   RA              Dec         delta   r     elong  mag " sig PA
---- --------  --------------  -----------  -----  ------ -----  --- --------
2020 02 11 00  03 32 11.203   +27 58 35.72  413671 .98704  96.0 16.3 .815  65
2020 02 11 01  03 32 34.850   +28 00 29.35  433977 .98707  96.1 16.4 .731  65
2020 02 11 02  03 32 56.388   +28 02 12.56  454256 .98709  96.1 16.5 .659  64
2020 02 11 03  03 33 16.086   +28 03 46.71  474511 .98712  96.1 16.6 .597  64
2020 02 11 04  03 33 34.171   +28 05 12.94  494744 .98714  96.2 16.7 .543  63
2020 02 11 05  03 33 50.835   +28 06 32.23  514956 .98716  96.2 16.7 .495  63
2020 02 11 06  03 34 06.239   +28 07 45.36  535148 .98719  96.2 16.8 .453  63
2020 02 11 07  03 34 20.520   +28 08 53.03  555323 .98721  96.2 16.9 .416  62
2020 02 11 08  03 34 33.797   +28 09 55.83  575482 .98724  96.2 17.0 .383  62
2020 02 11 09  03 34 46.172   +28 10 54.26  595625 .98726  96.2 17.1 .354  61
2020 02 11 10  03 34 57.734   +28 11 48.76  615754 .98728  96.2 17.1 .328  61
2020 02 11 11  03 35 08.561   +28 12 39.71  635869 .98730  96.2 17.2 .305  60
2020 02 11 12  03 35 18.720   +28 13 27.45  655972 .98733  96.2 17.3 .284  60
2020 02 11 13  03 35 28.271   +28 14 12.26  676063 .98735  96.2 17.3 .265  59
2020 02 11 14  03 35 37.268   +28 14 54.41  696142 .98737  96.2 17.4 .248  59
2020 02 11 15  03 35 45.756   +28 15 34.13  716211 .98739  96.2 17.5 .232  58
2020 02 11 16  03 35 53.777   +28 16 11.61  736269 .98742  96.2 17.5 .218  57
2020 02 11 17  03 36 01.370   +28 16 47.04  756318 .98744  96.2 17.6 .205  57
2020 02 11 18  03 36 08.567   +28 17 20.58  776358 .98746  96.2 17.6 .194  56
2020 02 11 19  03 36 15.398   +28 17 52.37  796390 .98748  96.2 17.7 .183  56
2020 02 11 20  03 36 21.890   +28 18 22.56  816413 .98750  96.2 17.7 .173  55
2020 02 11 21  03 36 28.068   +28 18 51.24  836428 .98752  96.1 17.8 .164  54
2020 02 11 22  03 36 33.954   +28 19 18.54  856436 .98755  96.1 17.8 .156  54
2020 02 11 23  03 36 39.568   +28 19 44.54  876437 .98757  96.1 17.9 .148  53
2020 02 12 00  03 36 44.929   +28 20 09.34  896430 .98759  96.1 17.9 .142  52
2020 02 12 01  03 36 50.052   +28 20 33.01  916417 .98761  96.1 18.0 .135  52
2020 02 12 02  03 36 54.954   +28 20 55.63  936398 .98763  96.0 18.0 .129  51
2020 02 12 03  03 36 59.649   +28 21 17.27  956373 .98765  96.0 18.1 .123  51
2020 02 12 04  03 37 04.149   +28 21 37.98  976342 .98767  96.0 18.1 .118  50
2020 02 12 05  03 37 08.465   +28 21 57.83  996305 .98769  96.0 18.2 .114  49
2020 02 12 06  03 37 12.610   +28 22 16.86  .00679 .98771  95.9 18.2 .109  49
2020 02 12 07  03 37 16.592   +28 22 35.13  .00693 .98773  95.9 18.3 .105  48
2020 02 12 08  03 37 20.422   +28 22 52.67  .00706 .98775  95.9 18.3 .101  47
2020 02 12 09  03 37 24.108   +28 23 09.54  .00719 .98776  95.9 18.3 .098  47
2020 02 12 10  03 37 27.658   +28 23 25.75  .00733 .98778  95.8 18.4 .095  46
2020 02 12 11  03 37 31.078   +28 23 41.36  .00746 .98780  95.8 18.4 .092  45
2020 02 12 12  03 37 34.377   +28 23 56.39  .00759 .98782  95.8 18.5 .089  45
2020 02 12 13  03 37 37.560   +28 24 10.88  .00773 .98784  95.7 18.5 .086  44
2020 02 12 14  03 37 40.634   +28 24 24.85  .00786 .98786  95.7 18.5 .084  44
2020 02 12 15  03 37 43.603   +28 24 38.33  .00799 .98788  95.7 18.6 .081  43
2020 02 12 16  03 37 46.474   +28 24 51.34  .00813 .98789  95.6 18.6 .079  43
2020 02 12 17  03 37 49.251   +28 25 03.90  .00826 .98791  95.6 18.7 .077  42
2020 02 12 18  03 37 51.938   +28 25 16.05  .00839 .98793  95.6 18.7 .075  41
2020 02 12 19  03 37 54.540   +28 25 27.79  .00852 .98795  95.6 18.7 .073  41
2020 02 12 20  03 37 57.061   +28 25 39.15  .00866 .98796  95.5 18.8 .071  40
2020 02 12 21  03 37 59.505   +28 25 50.14  .00879 .98798  95.5 18.8 .070  40
2020 02 12 22  03 38 01.875   +28 26 00.78  .00892 .98800  95.5 18.8 .068  39
2020 02 12 23  03 38 04.174   +28 26 11.09  .00906 .98801  95.4 18.9 .067  39
2020 02 13 00  03 38 06.405   +28 26 21.08  .00919 .98803  95.4 18.9 .065  38
2020 02 13 01  03 38 08.573   +28 26 30.77  .00932 .98805  95.4 18.9 .064  38
2020 02 13 02  03 38 10.678   +28 26 40.16  .00946 .98806  95.3 19.0 .063  37
2020 02 13 03  03 38 12.725   +28 26 49.28  .00959 .98808  95.3 19.0 .062  37
2020 02 13 04  03 38 14.715   +28 26 58.13  .00972 .98809  95.3 19.0 .061  37
2020 02 13 05  03 38 16.650   +28 27 06.72  .00985 .98811  95.2 19.1 .060  36
2020 02 13 06  03 38 18.534   +28 27 15.06  .00999 .98813  95.2 19.1 .059  36
2020 02 13 07  03 38 20.368   +28 27 23.17  .01012 .98814  95.2 19.1 .058  35
2020 02 13 08  03 38 22.154   +28 27 31.06  .01025 .98816  95.1 19.1 .057  35
2020 02 13 09  03 38 23.894   +28 27 38.72  .01039 .98817  95.1 19.2 .056  35
2020 02 13 10  03 38 25.589   +28 27 46.18  .01052 .98819  95.0 19.2 .055  34
2020 02 13 11  03 38 27.243   +28 27 53.43  .01065 .98820  95.0 19.2 .054  34
2020 02 13 12  03 38 28.855   +28 28 00.49  .01078 .98822  95.0 19.3 .054  34
2020 02 13 13  03 38 30.428   +28 28 07.37  .01092 .98823  94.9 19.3 .053  33
2020 02 13 14  03 38 31.963   +28 28 14.06  .01105 .98824  94.9 19.3 .052  33
2020 02 13 15  03 38 33.462   +28 28 20.58  .01118 .98826  94.9 19.3 .051  33
2020 02 13 16  03 38 34.926   +28 28 26.94  .01131 .98827  94.8 19.4 .051  33
2020 02 13 17  03 38 36.356   +28 28 33.13  .01145 .98829  94.8 19.4 .050  32
2020 02 13 18  03 38 37.753   +28 28 39.17  .01158 .98830  94.8 19.4 .050  32
2020 02 13 19  03 38 39.119   +28 28 45.06  .01171 .98831  94.7 19.4 .049  32
2020 02 13 20  03 38 40.454   +28 28 50.81  .01184 .98833  94.7 19.5 .049  32
2020 02 13 21  03 38 41.760   +28 28 56.41  .01198 .98834  94.7 19.5 .048  31
2020 02 13 22  03 38 43.038   +28 29 01.88  .01211 .98835  94.6 19.5 .048  31
2020 02 13 23  03 38 44.289   +28 29 07.22  .01224 .98836  94.6 19.5 .047  31
2020 02 14 00  03 38 45.513   +28 29 12.44  .01237 .98838  94.5 19.6 .047  31
2020 02 14 01  03 38 46.711   +28 29 17.53  .01251 .98839  94.5 19.6 .046  31
2020 02 14 02  03 38 47.885   +28 29 22.51  .01264 .98840  94.5 19.6 .046  30
2020 02 14 03  03 38 49.035   +28 29 27.37  .01277 .98841  94.4 19.6 .045  30
2020 02 14 04  03 38 50.162   +28 29 32.12  .01290 .98842  94.4 19.7 .045  30
2020 02 14 05  03 38 51.267   +28 29 36.77  .01304 .98844  94.4 19.7 .045  30
2020 02 14 06  03 38 52.350   +28 29 41.31  .01317 .98845  94.3 19.7 .044  30
2020 02 14 07  03 38 53.412   +28 29 45.75  .01330 .98846  94.3 19.7 .044  30
2020 02 14 08  03 38 54.454   +28 29 50.10  .01343 .98847  94.2 19.8 .044  30
